Weather in Babino

Russia / Tver Oblast     56°44′04″N   34°16′48″E
temp.,
°C
wind,
m/s
gust,
m/s
humid.,
%
clouds,
%
prec.,
mm/h
press.,
hPa
HPBL,
m
27 october, wed
wed2700:00+2sw41383100 0.0 1016437
03:00+2sw41386100 0.0 1014430
06:00+3sw41286100 0.0 1012449
09:00+3sw51290100 0.8 1011481
12:00+4wsw51294100 1.1 1012633
15:00+6w51186100 1.2 10121157
18:00+6wsw41183100 0.1 1013663
21:00+4wsw41188100 0.1 1013511
28 october, thu
thu2800:00+4sw41294100 0.0 1012511
03:00+5ssw51494100 1.5 1008900
06:00+7wsw51495100 1.6 1006772
09:00+9wnw5118732 1.8 1008932
12:00+8wnw61184100 0.2 1012906
15:00+7nnw598389 0.3 1015972
18:00+6n3886100 0.1 1019624
21:00+5nne1589100 0.1 1022201
29 october, fri
fri2900:00+4s118876 0.0 102412
03:00+3ssw269298 0.0 1025142
06:00+4ssw3988100 0.0 1025315
09:00+5ssw41387100 0.0 1024434
12:00+7sw51388100 0.0 1024572
15:00+9wsw51290100 0.0 1024601
18:00+8sw4129326 0.0 1024430
21:00+10wsw51188100 0.0 1025606
30 october, sat
sat3000:00+9sw4128933 0.0 1025564
03:00+8sw4139596 0.0 1025488
06:00+8sw4139597 0.0 1025487
09:00+7sw4139387 0.0 1026443
12:00+9sw41279100 0.0 1026462
15:00+10sw41171100 0.0 1026527
18:00+7ssw412785 0.0 1026377
21:00+6sw4148251 0.0 1026403
31 october, sun
sun3100:00+5sw414855 0.0 1026411
03:00+5sw413895 0.0 1025379
06:00+4sw412935 0.0 1025341
09:00+5sw412925 0.0 1025338
12:00+8sw4117524 0.0 1025436
15:00+9ssw411715 0.0 1024541
18:00+6ssw411846 0.0 1024336
21:00+5ssw4138837 0.0 1023365